Rbgn^[z[y[W
メイン
   新天体発見情報
     Comet C/2021 A1 (Leonard)
投稿するにはまず登録を

スレッド表示 | 新しいものから 前のトピック | 次のトピック | 下へ
投稿者 スレッド
佐藤裕久
投稿日時: 2021-1-24 2:29
モデレータ
登録日: 2005-6-12
居住地: 日本
投稿: 2180
オンライン
Comet C/2021 A1 (Leonard)

Gregory J. Leonardの通報によると、1月3.54日-3.56日UT、Mt Lemmonサーベイの1.5-m反射望遠鏡
で得たCCD画像から彗星を発見した。
Leonardによると、30秒露出4枚で集光した約10"のコマとp.a. 250-270°に約5"の短い尾がある。
小惑星センターのPCCP webpageに公表後、K. Sarneczky (Konkoly天文台, ハンガリー, 2020年11月
24.16日UT, 90秒露出3枚のスタック, Piszkesteto観測所の0.60-m Schmidt望遠鏡: 集光した10" 
のコマが見えるが尾はない。光度は9.5-19.9等であった)らCCD位置観測者によって彗星状と観測
された。

彗星機能の報告は次の通り:

OC   Date        Reporter           Coma    Tail    PA          Exposures
G96  2020-11-21  D. Rankin          8" 
K88  2020-11-24  K. Sarneczky      10"                            3x90s
H06  2021-01-06  A. Valvasori       7"                           15x120s

発見位置は次のとおり、

     2021 UT             R.A. (2000) Decl.       Mag.   Observer
     Jan.  3.54226   14 03 54.12   +40 51 49.9   19.0   Leonard
           3.54742   14 03 54.22   +40 51 52.7   19.2     "
           3.55256   14 03 54.32   +40 51 55.9   19.3     "
           3.55771   14 03 54.41   +40 51 58.7   19.0     "

MPCの楕円軌道要素、位置推算表は次のとおり、

Orbital elements:
    C/2021 A1 (Leonard)                                                         
Epoch 2022 Jan. 21.0 TT = JDT 2459600.5                                         
T 2022 Jan. 3.32597 TT                                  Rudenko                 
q   0.6152366            (2000.0)            P               Q                  
z  +0.0000249      Peri.  225.09575     +0.63776630     +0.29156526             
 +/-0.0000139      Node   255.89483     +0.72787449     -0.53085203             
e   0.9999847      Incl.  132.68647     -0.25189854     -0.79572974             
From 101 observations 2020 Apr. 11-2021 Jan. 9, mean residual 0".5.             
                                                                                
    C/2021 A1 (Leonard)                                                         
Epoch 2020 Dec. 17.0 TT = JDT 2459200.5                                         
T 2022 Jan. 3.30380 TT                                  Rudenko                 
q   0.6149314            (2000.0)            P               Q                  
z  -0.0000792      Peri.  225.09089     +0.63796886     +0.29128314             
 +/-0.0000139      Node   255.87128     +0.72768265     -0.53089651             
e   1.0000487      Incl.  132.68579     -0.25193987     -0.79580339             
From 101 observations 2020 Apr. 11-2021 Jan. 9, mean residual 0".5.             
                                                                                
Ephemeris:
Date    TT    R. A. (2000) Decl.     Delta      r    Elong.  Phase   m1
2020 12 11    13 54 00.3 +37 54 15   5.4499  5.3103    76.7    10.4  19.4
...
2020 12 26    14 00 53.6 +39 36 03   5.1164  5.1605    87.1    11.0  19.2
...
2021 01 03    14 03 44.1 +40 46 37   4.9388  5.0798    92.6    11.1  19.0
...
2021 01 09    14 05 22.1 +41 47 11   4.8073  5.0189    96.8    11.2  18.9
2021 01 10    14 05 35.5 +41 57 54   4.7856  5.0087    97.4    11.2  18.9
2021 01 11    14 05 48.1 +42 08 49   4.7640  4.9985    98.1    11.2  18.9
...
2021 01 17    14 06 43.6 +43 18 05   4.6363  4.9372   102.1    11.2  18.8
...
2021 01 25    14 06 57.1 +45 00 04   4.4723  4.8549   107.2    11.2  18.6
...
2021 02 09    14 03 26.2 +48 37 00   4.1917  4.6991   115.3    10.9  18.3

(MPEC 2021-A99、CBET 4907)

スレッド表示 | 新しいものから 前のトピック | 次のトピック | トップ

投稿するにはまず登録を
 
© 1999 Tsutomu Seki.